| time (UTC) | temp C | wind direction | speed KPH | gust KPH | rain 1hr cm | rain 24hr cm | rain mn cm | humidity % | barometer mb |
| 20260901070242 | 25 | 58 | 3.2 | 6.4 | 0.00 | 0.00 | 0.00 | 82 | 1014.6 |
| 20260901070104 | 25 | 58 | 3.2 | 6.4 | 0.00 | 0.00 | 0.00 | 82 | 1011.9 |
| 20260901070001 | 25 | 58 | 3.2 | 4.8 | 0.00 | 0.00 | 0.00 | 82 | 1011.8 |
| 20260901065727 | 25 | 58 | 3.2 | 4.8 | 0.00 | 0.00 | 0.00 | 82 | 1014.6 |
| 20260901065238 | 26 | 58 | 3.2 | 6.4 | 0.00 | 0.00 | 0.00 | 82 | 1014.5 |
| 20260901064750 | 26 | 58 | 3.2 | 6.4 | 0.00 | 0.00 | 0.00 | 82 | 1014.5 |
| 20260901064547 | 25 | 58 | 3.2 | 6.4 | 0.00 | 0.00 | 0.00 | 82 | 1011.8 |
| 20260901064244 | 26 | 54 | 3.2 | 8.0 | 0.00 | 0.00 | 0.00 | 82 | 1014.5 |
| 20260901063723 | 26 | 54 | 1.6 | 8.0 | 0.00 | 0.00 | 0.00 | 82 | 1014.5 |
| 20260901063236 | 26 | 59 | 3.2 | 9.7 | 0.00 | 0.00 | 0.00 | 82 | 1014.4 |
| 20260901063056 | 26 | 61 | 3.2 | 9.7 | 0.00 | 0.00 | 0.00 | 82 | 1011.8 |
| 20260901062747 | 26 | 55 | 4.8 | 9.7 | 0.00 | 0.00 | 0.00 | 82 | 1014.5 |
| 20260901062231 | 26 | 59 | 6.4 | 11.3 | 0.00 | 0.00 | 0.00 | 82 | 1014.5 |
| 20260901061745 | 26 | 64 | 4.8 | 8.0 | 0.00 | 0.00 | 0.00 | 81 | 1014.6 |
| 20260901061547 | 26 | 64 | 4.8 | 8.0 | 0.00 | 0.00 | 0.00 | 81 | 1012.0 |
| 20260901061231 | 26 | 63 | 4.8 | 9.7 | 0.00 | 0.00 | 0.00 | 81 | 1014.6 |
| 20260901060742 | 26 | 66 | 3.2 | 9.7 | 0.00 | 0.00 | 0.00 | 81 | 1014.7 |
| 20260901060227 | 26 | 65 | 4.8 | 8.0 | 0.00 | 0.00 | 0.00 | 81 | 1014.7 |
| 20260901060054 | 26 | 91 | 3.2 | 8.0 | 0.00 | 0.00 | 0.00 | 81 | 1012.1 |
| 20260901055737 | 26 | 97 | 4.8 | 8.0 | 0.00 | 0.00 | 0.00 | 81 | 1014.8 |
| 20260901055250 | 26 | 94 | 4.8 | 9.7 | 0.00 | 0.00 | 0.00 | 82 | 1014.7 |
| 20260901054734 | 26 | 92 | 4.8 | 11.3 | 0.00 | 0.00 | 0.00 | 82 | 1014.7 |
| 20260901054558 | 26 | 116 | 4.8 | 11.3 | 0.00 | 0.00 | 0.00 | 82 | 1012.0 |
| 20260901054248 | 26 | 96 | 6.4 | 11.3 | 0.00 | 0.00 | 0.00 | 82 | 1014.7 |
| 20260901053730 | 26 | 95 | 6.4 | 9.7 | 0.00 | 0.00 | 0.00 | 82 | 1014.7 |
| 20260901053242 | 26 | 88 | 4.8 | 9.7 | 0.00 | 0.00 | 0.00 | 82 | 1014.7 |
| 20260901053000 | 26 | 101 | 3.2 | 9.7 | 0.00 | 0.00 | 0.00 | 82 | 1012.0 |
| 20260901052727 | 26 | 111 | 3.2 | 9.7 | 0.00 | 0.00 | 0.00 | 82 | 1014.8 |
| 20260901052239 | 26 | 111 | 3.2 | 9.7 | 0.00 | 0.00 | 0.00 | 82 | 1014.9 |
| 20260901051721 | 26 | 84 | 4.8 | 9.7 | 0.00 | 0.00 | 0.00 | 82 | 1014.8 |
| 20260901051513 | 26 | 93 | 3.2 | 6.4 | 0.00 | 0.00 | 0.00 | 81 | 1012.2 |
| 20260901051231 | 26 | 93 | 3.2 | 6.4 | 0.00 | 0.00 | 0.00 | 81 | 1014.9 |
| 20260901050740 | 26 | 65 | 0.0 | 3.2 | 0.00 | 0.00 | 0.00 | 80 | 1014.9 |
| 20260901050226 | 26 | 65 | 0.0 | 3.2 | 0.00 | 0.00 | 0.00 | 80 | 1014.9 |
| 20260901050019 | 26 | 65 | 0.0 | 3.2 | 0.00 | 0.00 | 0.00 | 80 | 1012.2 |
| 20260901045738 | 26 | 65 | 0.0 | 0.0 | 0.00 | 0.00 | 0.00 | 80 | 1014.9 |
| 20260901045222 | 26 | 65 | 0.0 | 4.8 | 0.00 | 0.00 | 0.00 | 80 | 1014.9 |
| 20260901044733 | 26 | 65 | 1.6 | 4.8 | 0.00 | 0.00 | 0.00 | 79 | 1014.8 |
| 20260901044514 | 26 | 65 | 1.6 | 3.2 | 0.00 | 0.00 | 0.00 | 79 | 1012.1 |
| 20260901044248 | 27 | 65 | 1.6 | 3.2 | 0.00 | 0.00 | 0.00 | 79 | 1014.8 |
| 20260901043731 | 27 | 65 | 1.6 | 3.2 | 0.00 | 0.00 | 0.00 | 78 | 1014.8 |
| 20260901043239 | 27 | 65 | 1.6 | 3.2 | 0.00 | 0.00 | 0.00 | 78 | 1014.8 |
| 20260901043014 | 26 | 65 | 1.6 | 3.2 | 0.00 | 0.00 | 0.00 | 78 | 1012.0 |
| 20260901042722 | 27 | 65 | 1.6 | 3.2 | 0.00 | 0.00 | 0.00 | 78 | 1014.7 |
| 20260901042233 | 27 | 65 | 1.6 | 3.2 | 0.00 | 0.00 | 0.00 | 77 | 1014.7 |
| 20260901041743 | 27 | 65 | 1.6 | 3.2 | 0.00 | 0.00 | 0.00 | 77 | 1014.8 |
| 20260901041520 | 27 | 65 | 0.0 | 3.2 | 0.00 | 0.00 | 0.00 | 77 | 1012.1 |
| 20260901041227 | 27 | 65 | 3.2 | 3.2 | 0.00 | 0.00 | 0.00 | 77 | 1014.8 |
| 20260901040755 | 27 | 65 | 1.6 | 3.2 | 0.00 | 0.00 | 0.00 | 77 | 1014.8 |
| 20260901040245 | 27 | 65 | 1.6 | 3.2 | 0.00 | 0.00 | 0.00 | 76 | 1014.8 |
| 20260901040044 | 27 | 65 | 0.0 | 3.2 | 0.00 | 0.00 | 0.00 | 76 | 1012.1 |
| 20260901035731 | 27 | 65 | 0.0 | 1.6 | 0.00 | 0.00 | 0.00 | 76 | 1014.8 |
| 20260901035243 | 27 | 65 | 0.0 | 3.2 | 0.00 | 0.00 | 0.00 | 76 | 1014.8 |
| 20260901034727 | 27 | 65 | 1.6 | 3.2 | 0.00 | 0.00 | 0.00 | 76 | 1014.7 |
| 20260901034550 | 27 | 65 | 0.0 | 3.2 | 0.00 | 0.00 | 0.00 | 75 | 1011.9 |
| 20260901034239 | 27 | 65 | 1.6 | 4.8 | 0.00 | 0.00 | 0.00 | 76 | 1014.6 |
| 20260901033731 | 28 | 65 | 1.6 | 4.8 | 0.00 | 0.00 | 0.00 | 75 | 1014.6 |
| 20260901033245 | 28 | 65 | 3.2 | 4.8 | 0.00 | 0.00 | 0.00 | 75 | 1014.6 |
| 20260901033044 | 27 | 65 | 0.0 | 4.8 | 0.00 | 0.00 | 0.00 | 75 | 1011.9 |
| 20260901032728 | 28 | 65 | 3.2 | 4.8 | 0.00 | 0.00 | 0.00 | 75 | 1014.6 |
| 20260901032255 | 28 | 65 | 3.2 | 4.8 | 0.00 | 0.00 | 0.00 | 75 | 1014.5 |
| 20260901031747 | 28 | 65 | 3.2 | 6.4 | 0.00 | 0.00 | 0.00 | 75 | 1014.5 |
| 20260901031528 | 28 | 65 | 3.2 | 6.4 | 0.00 | 0.00 | 0.00 | 75 | 1011.7 |
| 20260901031230 | 28 | 65 | 3.2 | 6.4 | 0.00 | 0.00 | 0.00 | 75 | 1014.4 |
| 20260901030741 | 28 | 65 | 3.2 | 6.4 | 0.00 | 0.00 | 0.00 | 75 | 1014.4 |
| 20260901030226 | 28 | 66 | 4.8 | 6.4 | 0.00 | 0.00 | 0.00 | 75 | 1014.5 |
| 20260901030034 | 28 | 66 | 3.2 | 6.4 | 0.00 | 0.00 | 0.00 | 75 | 1011.7 |
| 20260901025737 | 28 | 71 | 3.2 | 6.4 | 0.00 | 0.00 | 0.00 | 74 | 1014.5 |
| 20260901025249 | 28 | 71 | 4.8 | 8.0 | 0.00 | 0.00 | 0.00 | 74 | 1014.4 |
| 20260901024731 | 28 | 87 | 4.8 | 11.3 | 0.00 | 0.00 | 0.00 | 74 | 1014.3 |
| 20260901024531 | 28 | 73 | 3.2 | 11.3 | 0.00 | 0.00 | 0.00 | 73 | 1011.5 |
| 20260901024301 | 28 | 92 | 4.8 | 11.3 | 0.00 | 0.00 | 0.00 | 73 | 1014.3 |
| 20260901023722 | 28 | 94 | 6.4 | 11.3 | 0.00 | 0.00 | 0.00 | 73 | 1014.3 |
| 20260901023233 | 28 | 90 | 6.4 | 11.3 | 0.00 | 0.00 | 0.00 | 73 | 1014.2 |
| 20260901023011 | 28 | 87 | 4.8 | 9.7 | 0.00 | 0.00 | 0.00 | 73 | 1011.4 |
| 20260901022744 | 28 | 92 | 4.8 | 9.7 | 0.00 | 0.00 | 0.00 | 73 | 1014.2 |
| 20260901022226 | 29 | 99 | 4.8 | 9.7 | 0.00 | 0.00 | 0.00 | 72 | 1014.2 |
| 20260901021736 | 29 | 99 | 4.8 | 9.7 | 0.00 | 0.00 | 0.00 | 72 | 1014.1 |
| 20260901021558 | 28 | 99 | 4.8 | 9.7 | 0.00 | 0.00 | 0.00 | 72 | 1011.4 |
| 20260901021249 | 29 | 99 | 4.8 | 6.4 | 0.00 | 0.00 | 0.00 | 72 | 1014.1 |
| 20260901020727 | 29 | 99 | 4.8 | 6.4 | 0.00 | 0.00 | 0.00 | 71 | 1014.0 |
| 20260901020240 | 30 | 75 | 3.2 | 6.4 | 0.00 | 0.00 | 0.00 | 71 | 1014.0 |
| 20260901020007 | 29 | 96 | 3.2 | 6.4 | 0.00 | 0.00 | 0.00 | 70 | 1011.2 |
| 20260901015723 | 30 | 96 | 4.8 | 6.4 | 0.00 | 0.00 | 0.00 | 70 | 1013.9 |
| 20260901015234 | 30 | 99 | 3.2 | 4.8 | 0.00 | 0.00 | 0.00 | 69 | 1013.9 |
| 20260901014746 | 30 | 99 | 3.2 | 6.4 | 0.00 | 0.00 | 0.00 | 69 | 1013.9 |
| 20260901014516 | 30 | 99 | 1.6 | 6.4 | 0.00 | 0.00 | 0.00 | 68 | 1011.1 |
| 20260901014231 | 30 | 99 | 3.2 | 6.4 | 0.00 | 0.00 | 0.00 | 68 | 1013.9 |
| 20260901013743 | 30 | 216 | 3.2 | 4.8 | 0.00 | 0.00 | 0.00 | 68 | 1013.8 |
| 20260901013225 | 30 | 216 | 3.2 | 4.8 | 0.00 | 0.00 | 0.00 | 68 | 1013.7 |
| 20260901013010 | 30 | 216 | 3.2 | 4.8 | 0.00 | 0.00 | 0.00 | 67 | 1010.9 |
| 20260901012752 | 30 | 216 | 3.2 | 4.8 | 0.00 | 0.00 | 0.00 | 67 | 1013.7 |
| 20260901012243 | 30 | 216 | 3.2 | 3.2 | 0.00 | 0.00 | 0.00 | 67 | 1013.7 |
| 20260901011733 | 31 | 216 | 1.6 | 3.2 | 0.00 | 0.00 | 0.00 | 66 | 1013.8 |
| 20260901011531 | 30 | 216 | 0.0 | 3.2 | 0.00 | 0.00 | 0.00 | 66 | 1011.0 |
| 20260901011308 | 31 | 216 | 1.6 | 1.6 | 0.00 | 0.00 | 0.00 | 65 | 1013.8 |
| 20260901010728 | 31 | 216 | 1.6 | 1.6 | 0.00 | 0.00 | 0.00 | 65 | 1013.9 |
| 20260901010239 | 31 | 216 | 0.0 | 1.6 | 0.00 | 0.00 | 0.00 | 65 | 1013.8 |
| 20260901010013 | 31 | 216 | 0.0 | 1.6 | 0.00 | 0.00 | 0.00 | 65 | 1011.0 |
| 20260901005722 | 31 | 216 | 0.0 | 1.6 | 0.00 | 0.00 | 0.00 | 65 | 1013.8 |
| 20260901005249 | 31 | 216 | 0.0 | 3.2 | 0.00 | 0.00 | 0.00 | 65 | 1013.9 |
| 20260901004731 | 31 | 216 | 1.6 | 3.2 | 0.00 | 0.00 | 0.00 | 65 | 1013.9 |
| 20260901004528 | 31 | 216 | 1.6 | 3.2 | 0.00 | 0.00 | 0.00 | 65 | 1011.0 |
| 20260901004243 | 31 | 216 | 1.6 | 3.2 | 0.00 | 0.00 | 0.00 | 65 | 1013.9 |
| 20260901003724 | 31 | 216 | 1.6 | 3.2 | 0.00 | 0.00 | 0.00 | 65 | 1013.9 |
| 20260901003235 | 31 | 216 | 1.6 | 3.2 | 0.00 | 0.00 | 0.00 | 65 | 1013.9 |
| 20260901003023 | 31 | 216 | 0.0 | 3.2 | 0.00 | 0.00 | 0.00 | 65 | 1011.0 |
| 20260901002746 | 32 | 216 | 0.0 | 4.8 | 0.00 | 0.00 | 0.00 | 65 | 1013.9 |
| 20260901002236 | 32 | 216 | 1.6 | 4.8 | 0.00 | 0.00 | 0.00 | 65 | 1014.0 |
| 20260901001743 | 32 | 216 | 3.2 | 3.2 | 0.00 | 0.00 | 0.00 | 64 | 1014.0 |
| 20260901001600 | 32 | 216 | 0.0 | 1.6 | 0.00 | 0.00 | 0.00 | 63 | 1011.1 |
| 20260901001226 | 32 | 216 | 0.0 | 0.0 | 0.00 | 0.00 | 0.00 | 62 | 1013.9 |
| 20260901000734 | 32 | 216 | 0.0 | 0.0 | 0.00 | 0.00 | 0.00 | 62 | 1014.0 |
| 20260901000245 | 32 | 216 | 0.0 | 3.2 | 0.00 | 0.00 | 0.00 | 62 | 1014.0 |
| 20260901000058 | 32 | 216 | 0.0 | 3.2 | 0.00 | 0.00 | 0.00 | 62 | 1011.2 |
| 20260831235727 | 32 | 216 | 1.6 | 3.2 | 0.00 | 0.00 | 0.00 | 62 | 1014.0 |
| 20260831235240 | 32 | 216 | 0.0 | 3.2 | 0.00 | 0.00 | 0.00 | 62 | 1014.0 |
| 20260831234723 | 32 | 216 | 1.6 | 4.8 | 0.00 | 0.00 | 0.00 | 61 | 1014.0 |
| 20260831234504 | 32 | 216 | 1.6 | 4.8 | 0.00 | 0.00 | 0.00 | 61 | 1011.1 |
| 20260831234311 | 33 | 216 | 1.6 | 4.8 | 0.00 | 0.00 | 0.00 | 61 | 1014.0 |
| 20260831233732 | 33 | 216 | 1.6 | 4.8 | 0.00 | 0.00 | 0.00 | 60 | 1014.0 |
| 20260831233243 | 33 | 216 | 1.6 | 3.2 | 0.00 | 0.00 | 0.00 | 60 | 1014.1 |
| 20260831233031 | 33 | 216 | 1.6 | 3.2 | 0.00 | 0.00 | 0.00 | 60 | 1011.2 |
| 20260831232726 | 33 | 216 | 1.6 | 3.2 | 0.00 | 0.00 | 0.00 | 61 | 1014.1 |
| 20260831232259 | 33 | 216 | 1.6 | 3.2 | 0.00 | 0.00 | 0.00 | 60 | 1014.1 |
| 20260831231721 | 33 | 216 | 3.2 | 6.4 | 0.00 | 0.00 | 0.00 | 59 | 1014.1 |
| 20260831231505 | 33 | 216 | 1.6 | 6.4 | 0.00 | 0.00 | 0.00 | 59 | 1011.2 |
| 20260831231234 | 33 | 216 | 3.2 | 6.4 | 0.00 | 0.00 | 0.00 | 60 | 1014.1 |
| 20260831230738 | 33 | 216 | 4.8 | 6.4 | 0.00 | 0.00 | 0.00 | 59 | 1014.1 |
| 20260831230221 | 33 | 216 | 1.6 | 6.4 | 0.00 | 0.00 | 0.00 | 61 | 1014.1 |
| 20260831230010 | 33 | 216 | 1.6 | 8.0 | 0.00 | 0.00 | 0.00 | 60 | 1011.2 |
| 20260831225733 | 33 | 216 | 4.8 | 8.0 | 0.00 | 0.00 | 0.00 | 59 | 1014.1 |
| 20260831225245 | 33 | 216 | 4.8 | 8.0 | 0.00 | 0.00 | 0.00 | 59 | 1014.1 |
| 20260831224736 | 33 | 216 | 3.2 | 6.4 | 0.00 | 0.00 | 0.00 | 62 | 1014.1 |
| 20260831224553 | 33 | 216 | 1.6 | 6.4 | 0.00 | 0.00 | 0.00 | 62 | 1011.2 |
| 20260831224248 | 33 | 216 | 3.2 | 6.4 | 0.00 | 0.00 | 0.00 | 62 | 1014.1 |
| 20260831223729 | 33 | 216 | 4.8 | 8.0 | 0.00 | 0.00 | 0.00 | 60 | 1014.1 |
| 20260831223240 | 33 | 216 | 4.8 | 9.7 | 0.00 | 0.00 | 0.00 | 60 | 1014.1 |
| 20260831223056 | 33 | 216 | 4.8 | 9.7 | 0.00 | 0.00 | 0.00 | 60 | 1011.2 |
| 20260831222747 | 33 | 216 | 4.8 | 9.7 | 0.00 | 0.00 | 0.00 | 61 | 1014.2 |
| 20260831222230 | 33 | 252 | 4.8 | 11.3 | 0.00 | 0.00 | 0.00 | 62 | 1014.2 |
| 20260831221800 | 33 | 252 | 3.2 | 11.3 | 0.00 | 0.00 | 0.00 | 62 | 1014.2 |
| 20260831221543 | 32 | 252 | 4.8 | 11.3 | 0.00 | 0.00 | 0.00 | 63 | 1011.3 |
| 20260831221250 | 33 | 252 | 6.4 | 11.3 | 0.00 | 0.00 | 0.00 | 63 | 1014.1 |
| 20260831220731 | 33 | 248 | 6.4 | 8.0 | 0.00 | 0.00 | 0.00 | 65 | 1014.2 |
| 20260831220242 | 32 | 248 | 6.4 | 8.0 | 0.00 | 0.00 | 0.00 | 64 | 1014.2 |
| 20260831220039 | 32 | 248 | 4.8 | 8.0 | 0.00 | 0.00 | 0.00 | 63 | 1011.3 |
| 20260831215724 | 32 | 248 | 4.8 | 11.3 | 0.00 | 0.00 | 0.00 | 62 | 1014.2 |
| 20260831215249 | 32 | 248 | 4.8 | 11.3 | 0.00 | 0.00 | 0.00 | 63 | 1014.2 |
| 20260831214733 | 32 | 263 | 6.4 | 11.3 | 0.00 | 0.00 | 0.00 | 64 | 1014.2 |
| 20260831214532 | 32 | 252 | 4.8 | 11.3 | 0.00 | 0.00 | 0.00 | 65 | 1011.3 |
| 20260831214306 | 32 | 252 | 6.4 | 11.3 | 0.00 | 0.00 | 0.00 | 63 | 1014.2 |
| 20260831213728 | 32 | 229 | 8.0 | 12.9 | 0.00 | 0.00 | 0.00 | 63 | 1014.2 |
| 20260831213239 | 32 | 225 | 11.3 | 14.5 | 0.00 | 0.00 | 0.00 | 63 | 1014.3 |
| 20260831213052 | 32 | 252 | 9.7 | 14.5 | 0.00 | 0.00 | 0.00 | 63 | 1011.4 |
| 20260831212723 | 32 | 236 | 9.7 | 16.1 | 0.00 | 0.00 | 0.00 | 64 | 1014.3 |
| 20260831212235 | 32 | 221 | 9.7 | 16.1 | 0.00 | 0.00 | 0.00 | 65 | 1014.4 |
| 20260831211744 | 32 | 220 | 9.7 | 16.1 | 0.00 | 0.00 | 0.00 | 64 | 1014.3 |
| 20260831211511 | 32 | 214 | 8.0 | 16.1 | 0.00 | 0.00 | 0.00 | 63 | 1011.5 |
| 20260831211228 | 32 | 219 | 11.3 | 16.1 | 0.00 | 0.00 | 0.00 | 65 | 1014.4 |
| 20260831210738 | 32 | 233 | 9.7 | 14.5 | 0.00 | 0.00 | 0.00 | 64 | 1014.4 |
| 20260831210249 | 32 | 211 | 9.7 | 14.5 | 0.00 | 0.00 | 0.00 | 63 | 1014.5 |
| 20260831210015 | 32 | 222 | 8.0 | 17.7 | 0.00 | 0.00 | 0.00 | 63 | 1011.5 |
| 20260831205731 | 32 | 202 | 8.0 | 17.7 | 0.00 | 0.00 | 0.00 | 62 | 1014.4 |
| 20260831205305 | 32 | 230 | 12.9 | 19.3 | 0.00 | 0.00 | 0.00 | 60 | 1014.4 |
| 20260831204752 | 32 | 217 | 12.9 | 19.3 | 0.00 | 0.00 | 0.00 | 62 | 1014.4 |
| 20260831204539 | 32 | 220 | 11.3 | 22.5 | 0.00 | 0.00 | 0.00 | 62 | 1011.6 |
| 20260831204241 | 32 | 215 | 14.5 | 24.1 | 0.00 | 0.00 | 0.00 | 64 | 1014.5 |
| 20260831203722 | 32 | 247 | 14.5 | 24.1 | 0.00 | 0.00 | 0.00 | 62 | 1014.6 |
| 20260831203254 | 32 | 245 | 14.5 | 22.5 | 0.00 | 0.00 | 0.00 | 63 | 1014.5 |
| 20260831203025 | 32 | 217 | 12.9 | 19.3 | 0.00 | 0.00 | 0.00 | 66 | 1011.7 |
| 20260831202743 | 32 | 254 | 14.5 | 19.3 | 0.00 | 0.00 | 0.00 | 67 | 1014.6 |
| 20260831202227 | 31 | 216 | 11.3 | 17.7 | 0.00 | 0.00 | 0.00 | 67 | 1014.6 |
| 20260831201759 | 31 | 242 | 9.7 | 22.5 | 0.00 | 0.00 | 0.00 | 66 | 1014.6 |
| 20260831201559 | 31 | 238 | 12.9 | 22.5 | 0.00 | 0.00 | 0.00 | 66 | 1011.8 |
| 20260831201513 | 31 | 241 | 12.9 | 22.5 | 0.00 | 0.00 | 0.00 | 66 | 1011.8 |
| 20260831201222 | 31 | 236 | 14.5 | 17.7 | 0.00 | 0.00 | 0.00 | 69 | 1014.6 |
| 20260831200747 | 31 | 232 | 9.7 | 19.3 | 0.00 | 0.00 | 0.00 | 67 | 1014.7 |
| 20260831200238 | 31 | 242 | 11.3 | 16.1 | 0.00 | 0.00 | 0.00 | 69 | 1014.7 |
| 20260831200047 | 31 | 237 | 8.0 | 16.1 | 0.00 | 0.00 | 0.00 | 70 | 1011.8 |
| 20260831195749 | 31 | 245 | 11.3 | 16.1 | 0.00 | 0.00 | 0.00 | 68 | 1014.7 |
| 20260831195240 | 31 | 211 | 9.7 | 14.5 | 0.00 | 0.00 | 0.00 | 69 | 1014.6 |
| 20260831194722 | 31 | 228 | 9.7 | 16.1 | 0.00 | 0.00 | 0.00 | 68 | 1014.7 |
| 20260831194531 | 31 | 233 | 8.0 | 16.1 | 0.00 | 0.00 | 0.00 | 69 | 1011.9 |
| 20260831194234 | 31 | 233 | 11.3 | 16.1 | 0.00 | 0.00 | 0.00 | 68 | 1014.7 |
| 20260831193740 | 31 | 238 | 9.7 | 17.7 | 0.00 | 0.00 | 0.00 | 66 | 1014.8 |
| 20260831193222 | 31 | 237 | 12.9 | 17.7 | 0.00 | 0.00 | 0.00 | 66 | 1014.7 |
| 20260831193036 | 31 | 240 | 8.0 | 14.5 | 0.00 | 0.00 | 0.00 | 66 | 1011.9 |
| 20260831192734 | 31 | 229 | 9.7 | 12.9 | 0.00 | 0.00 | 0.00 | 67 | 1014.7 |
| 20260831192247 | 31 | 239 | 9.7 | 14.5 | 0.00 | 0.00 | 0.00 | 66 | 1014.7 |
| 20260831191730 | 31 | 235 | 9.7 | 16.1 | 0.00 | 0.00 | 0.00 | 65 | 1014.7 |
| 20260831191528 | 31 | 215 | 8.0 | 16.1 | 0.00 | 0.00 | 0.00 | 66 | 1011.8 |
| 20260831191303 | 32 | 223 | 11.3 | 16.1 | 0.00 | 0.00 | 0.00 | 66 | 1014.7 |
| 20260831190722 | 32 | 242 | 9.7 | 17.7 | 0.00 | 0.00 | 0.00 | 65 | 1014.6 |
| 20260831190309 | 32 | 232 | 9.7 | 16.1 | 0.00 | 0.00 | 0.00 | 65 | 1014.6 |
| 20260831190056 | 32 | 238 | 9.7 | 16.1 | 0.00 | 0.00 | 0.00 | 66 | 1011.7 |
| 20260831185732 | 32 | 201 | 11.3 | 16.1 | 0.00 | 0.00 | 0.00 | 67 | 1014.6 |
| 20260831185243 | 32 | 220 | 9.7 | 16.1 | 0.00 | 0.00 | 0.00 | 64 | 1014.6 |
| 20260831184726 | 32 | 239 | 8.0 | 14.5 | 0.00 | 0.00 | 0.00 | 64 | 1014.6 |
| 20260831184546 | 32 | 217 | 6.4 | 14.5 | 0.00 | 0.00 | 0.00 | 61 | 1011.8 |
| 20260831184240 | 32 | 232 | 6.4 | 14.5 | 0.00 | 0.00 | 0.00 | 62 | 1014.7 |
| 20260831183722 | 32 | 225 | 6.4 | 9.7 | 0.00 | 0.00 | 0.00 | 63 | 1014.6 |
| 20260831183233 | 32 | 215 | 6.4 | 9.7 | 0.00 | 0.00 | 0.00 | 61 | 1014.6 |
| 20260831183058 | 32 | 215 | 4.8 | 8.0 | 0.00 | 0.00 | 0.00 | 62 | 1011.8 |
| 20260831182744 | 32 | 215 | 3.2 | 8.0 | 0.00 | 0.00 | 0.00 | 62 | 1014.6 |
| 20260831182222 | 32 | 215 | 4.8 | 9.7 | 0.00 | 0.00 | 0.00 | 61 | 1014.6 |
| 20260831181735 | 32 | 215 | 6.4 | 9.7 | 0.00 | 0.00 | 0.00 | 61 | 1014.5 |
| 20260831181550 | 32 | 202 | 6.4 | 9.7 | 0.00 | 0.00 | 0.00 | 61 | 1011.7 |
| 20260831181246 | 32 | 236 | 3.2 | 11.3 | 0.00 | 0.00 | 0.00 | 62 | 1014.6 |
| 20260831180726 | 32 | 236 | 8.0 | 11.3 | 0.00 | 0.00 | 0.00 | 65 | 1014.6 |
| 20260831180237 | 32 | 192 | 6.4 | 11.3 | 0.00 | 0.00 | 0.00 | 64 | 1014.6 |
| 20260831180050 | 32 | 241 | 4.8 | 12.9 | 0.00 | 0.00 | 0.00 | 63 | 1011.7 |
| 20260831175749 | 32 | 252 | 4.8 | 11.3 | 0.00 | 0.00 | 0.00 | 66 | 1014.5 |
| 20260831175230 | 32 | 258 | 3.2 | 12.9 | 0.00 | 0.00 | 0.00 | 64 | 1014.5 |
| 20260831174800 | 32 | 259 | 6.4 | 12.9 | 0.00 | 0.00 | 0.00 | 65 | 1014.5 |
| 20260831174523 | 31 | 240 | 3.2 | 14.5 | 0.00 | 0.00 | 0.00 | 64 | 1011.8 |
| 20260831174223 | 32 | 232 | 6.4 | 14.5 | 0.00 | 0.00 | 0.00 | 64 | 1014.6 |
| 20260831173734 | 31 | 227 | 8.0 | 14.5 | 0.00 | 0.00 | 0.00 | 64 | 1014.7 |
| 20260831173307 | 31 | 238 | 6.4 | 12.9 | 0.00 | 0.00 | 0.00 | 63 | 1014.7 |
| 20260831173101 | 31 | 238 | 6.4 | 12.9 | 0.00 | 0.00 | 0.00 | 64 | 1011.8 |
| 20260831172728 | 31 | 261 | 6.4 | 9.7 | 0.00 | 0.00 | 0.00 | 66 | 1014.7 |
| 20260831172259 | 31 | 308 | 4.8 | 11.3 | 0.00 | 0.00 | 0.00 | 67 | 1014.7 |
| 20260831171722 | 31 | 221 | 6.4 | 11.3 | 0.00 | 0.00 | 0.00 | 65 | 1014.7 |
| 20260831171539 | 31 | 251 | 4.8 | 11.3 | 0.00 | 0.00 | 0.00 | 64 | 1011.8 |
| 20260831171250 | 31 | 243 | 4.8 | 11.3 | 0.00 | 0.00 | 0.00 | 67 | 1014.6 |
| 20260831170738 | 31 | 281 | 4.8 | 12.9 | 0.00 | 0.00 | 0.00 | 68 | 1014.5 |
| 20260831170309 | 31 | 250 | 4.8 | 16.1 | 0.00 | 0.00 | 0.00 | 69 | 1014.5 |
| 20260831170035 | 30 | 288 | 8.0 | 16.1 | 0.00 | 0.00 | 0.00 | 69 | 1011.6 |
| 20260831165728 | 30 | 260 | 6.4 | 16.1 | 0.00 | 0.00 | 0.00 | 70 | 1014.4 |
| 20260831165240 | 30 | 291 | 4.8 | 16.1 | 0.00 | 0.00 | 0.00 | 71 | 1014.3 |
| 20260831164723 | 30 | 272 | 8.0 | 16.1 | 0.00 | 0.00 | 0.00 | 70 | 1014.4 |
| 20260831164530 | 29 | 240 | 8.0 | 16.1 | 0.00 | 0.00 | 0.00 | 72 | 1011.5 |
| 20260831164237 | 29 | 279 | 6.4 | 12.9 | 0.00 | 0.00 | 0.00 | 72 | 1014.4 |
| 20260831163744 | 29 | 308 | 6.4 | 11.3 | 0.00 | 0.00 | 0.00 | 74 | 1014.2 |
| 20260831163227 | 28 | 234 | 4.8 | 12.9 | 0.00 | 0.00 | 0.00 | 73 | 1014.1 |
| 20260831163036 | 28 | 233 | 6.4 | 12.9 | 0.00 | 0.00 | 0.00 | 73 | 1011.3 |
| 20260831162758 | 28 | 247 | 8.0 | 12.9 | 0.00 | 0.00 | 0.00 | 73 | 1014.1 |
| 20260831162248 | 28 | 217 | 8.0 | 12.9 | 0.00 | 0.00 | 0.00 | 73 | 1014.3 |
| 20260831161737 | 28 | 252 | 8.0 | 11.3 | 0.00 | 0.00 | 0.00 | 73 | 1014.3 |
| 20260831161540 | 28 | 286 | 6.4 | 11.3 | 0.00 | 0.00 | 0.00 | 73 | 1011.4 |
| 20260831161250 | 28 | 237 | 6.4 | 8.0 | 0.00 | 0.00 | 0.00 | 72 | 1014.2 |
| 20260831160731 | 28 | 251 | 4.8 | 9.7 | 0.00 | 0.00 | 0.00 | 73 | 1013.9 |
| 20260831160238 | 28 | 257 | 4.8 | 9.7 | 0.00 | 0.00 | 0.00 | 75 | 1013.9 |
| 20260831160044 | 28 | 269 | 4.8 | 9.7 | 0.00 | 0.00 | 0.00 | 76 | 1011.0 |
| 20260831155746 | 28 | 251 | 4.8 | 8.0 | 0.00 | 0.00 | 0.00 | 76 | 1013.7 |
| 20260831155237 | 28 | 327 | 3.2 | 4.8 | 0.00 | 0.00 | 0.00 | 75 | 1013.7 |
| 20260831154749 | 28 | 14 | 3.2 | 9.7 | 0.00 | 0.00 | 0.00 | 76 | 1013.6 |
| 20260831154521 | 27 | 333 | 1.6 | 9.7 | 0.00 | 0.00 | 0.00 | 76 | 1010.8 |
| 20260831154232 | 28 | 333 | 4.8 | 12.9 | 0.00 | 0.00 | 0.00 | 76 | 1013.5 |
| 20260831153740 | 28 | 348 | 6.4 | 12.9 | 0.00 | 0.00 | 0.00 | 76 | 1013.5 |
| 20260831153224 | 27 | 325 | 6.4 | 12.9 | 0.00 | 0.00 | 0.00 | 77 | 1013.4 |
| 20260831153022 | 27 | 330 | 6.4 | 14.5 | 0.00 | 0.00 | 0.00 | 77 | 1010.3 |
| 20260831152732 | 27 | 310 | 9.7 | 14.5 | 0.00 | 0.00 | 0.00 | 77 | 1013.4 |
| 20260831152306 | 27 | 319 | 9.7 | 14.5 | 0.00 | 0.00 | 0.00 | 78 | 1013.6 |
| 20260831151726 | 27 | 277 | 6.4 | 12.9 | 0.00 | 0.00 | 0.00 | 76 | 1013.6 |
| 20260831151517 | 27 | 306 | 6.4 | 9.7 | 0.00 | 0.00 | 0.00 | 76 | 1010.7 |
| 20260831151238 | 27 | 313 | 8.0 | 9.7 | 0.00 | 0.00 | 0.00 | 78 | 1013.5 |
| 20260831150722 | 27 | 314 | 4.8 | 19.3 | 0.00 | 0.00 | 0.00 | 78 | 1013.5 |
| 20260831150234 | 27 | 326 | 8.0 | 19.3 | 0.00 | 0.00 | 0.00 | 78 | 1013.7 |
| 20260831150002 | 27 | 317 | 12.9 | 19.3 | 0.00 | 0.00 | 0.00 | 78 | 1010.8 |
| 20260831145745 | 27 | 317 | 11.3 | 16.1 | 0.00 | 0.00 | 0.00 | 79 | 1013.5 |
| 20260831145228 | 27 | 308 | 4.8 | 11.3 | 0.00 | 0.00 | 0.00 | 82 | 1013.3 |
| 20260831144735 | 26 | 315 | 1.6 | 9.7 | 0.00 | 0.00 | 0.00 | 83 | 1012.9 |
| 20260831144519 | 26 | 315 | 4.8 | 9.7 | 0.00 | 0.00 | 0.00 | 83 | 1010.1 |
| 20260831144250 | 26 | 315 | 6.4 | 9.7 | 0.00 | 0.00 | 0.00 | 83 | 1012.8 |
| 20260831143733 | 26 | 254 | 3.2 | 6.4 | 0.00 | 0.00 | 0.00 | 83 | 1013.0 |
| 20260831143244 | 26 | 254 | 3.2 | 6.4 | 0.00 | 0.00 | 0.00 | 83 | 1013.1 |
| 20260831143022 | 25 | 254 | 1.6 | 8.0 | 0.00 | 0.00 | 0.00 | 84 | 1010.3 |
| 20260831142727 | 26 | 254 | 0.0 | 8.0 | 0.00 | 0.00 | 0.00 | 84 | 1013.1 |
| 20260831142239 | 25 | 254 | 4.8 | 12.9 | 0.00 | 0.00 | 0.00 | 84 | 1013.1 |
| 20260831141722 | 25 | 254 | 4.8 | 19.3 | 0.00 | 0.00 | 0.00 | 84 | 1013.2 |
| 20260831141526 | 25 | 243 | 6.4 | 19.3 | 0.00 | 0.00 | 0.00 | 84 | 1010.6 |
| 20260831141236 | 25 | 250 | 11.3 | 19.3 | 0.00 | 0.00 | 0.00 | 84 | 1013.6 |
| 20260831140743 | 25 | 261 | 6.4 | 12.9 | 0.00 | 0.00 | 0.00 | 84 | 1013.3 |
| 20260831140227 | 25 | 302 | 4.8 | 12.9 | 0.00 | 0.00 | 0.00 | 84 | 1013.2 |
| 20260831140035 | 25 | 277 | 9.7 | 12.9 | 0.00 | 0.00 | 0.00 | 84 | 1010.4 |
| 20260831135739 | 25 | 286 | 6.4 | 12.9 | 0.00 | 0.00 | 0.00 | 84 | 1013.2 |
| 20260831135250 | 25 | 277 | 4.8 | 14.5 | 0.00 | 0.00 | 0.00 | 84 | 1013.2 |
| 20260831134732 | 25 | 297 | 4.8 | 16.1 | 0.00 | 0.00 | 0.00 | 84 | 1013.0 |
| 20260831134528 | 24 | 317 | 8.0 | 20.9 | 0.00 | 0.00 | 0.00 | 85 | 1010.2 |
| 20260831134245 | 25 | 293 | 11.3 | 20.9 | 0.00 | 0.00 | 0.00 | 85 | 1013.2 |
| 20260831133728 | 25 | 298 | 12.9 | 20.9 | 0.00 | 0.00 | 0.00 | 85 | 1013.3 |
| 20260831133257 | 25 | 253 | 16.1 | 20.9 | 0.00 | 0.00 | 0.00 | 85 | 1013.4 |
| 20260831133014 | 24 | 244 | 12.9 | 24.1 | 0.00 | 0.00 | 0.00 | 86 | 1010.6 |
| 20260831132748 | 25 | 254 | 12.9 | 24.1 | 0.00 | 0.00 | 0.00 | 86 | 1013.4 |
| 20260831132231 | 24 | 280 | 14.5 | 24.1 | 0.00 | 0.00 | 0.00 | 87 | 1013.3 |
| 20260831131804 | 24 | 251 | 11.3 | 16.1 | 0.00 | 0.00 | 0.00 | 87 | 1013.5 |
| 20260831131559 | 24 | 257 | 9.7 | 19.3 | 0.00 | 0.00 | 0.00 | 87 | 1010.6 |
| 20260831131228 | 24 | 257 | 9.7 | 19.3 | 0.00 | 0.00 | 0.00 | 87 | 1013.4 |
| 20260831130758 | 24 | 300 | 14.5 | 19.3 | 0.00 | 0.00 | 0.00 | 88 | 1012.9 |
| 20260831130221 | 24 | 292 | 11.3 | 14.5 | 0.00 | 0.00 | 0.00 | 88 | 1013.0 |
| 20260831130037 | 24 | 277 | 8.0 | 16.1 | 0.00 | 0.00 | 0.00 | 88 | 1010.2 |
| 20260831125811 | 24 | 279 | 9.7 | 16.1 | 0.00 | 0.00 | 0.00 | 88 | 1013.1 |
| 20260831125234 | 24 | 256 | 11.3 | 16.1 | 0.00 | 0.00 | 0.00 | 88 | 1013.2 |
| 20260831124746 | 24 | 244 | 9.7 | 17.7 | 0.00 | 0.00 | 0.00 | 89 | 1013.2 |
| 20260831124518 | 23 | 241 | 9.7 | 17.7 | 0.00 | 0.00 | 0.00 | 89 | 1010.5 |
| 20260831124231 | 24 | 269 | 11.3 | 17.7 | 0.00 | 0.00 | 0.00 | 89 | 1013.2 |
| 20260831123742 | 24 | 269 | 12.9 | 17.7 | 0.00 | 0.00 | 0.00 | 89 | 1013.2 |
| 20260831123226 | 24 | 264 | 9.7 | 14.5 | 0.00 | 0.00 | 0.00 | 89 | 1013.1 |
| 20260831123022 | 23 | 257 | 9.7 | 12.9 | 0.00 | 0.00 | 0.00 | 89 | 1010.3 |
| 20260831122737 | 23 | 239 | 8.0 | 12.9 | 0.00 | 0.00 | 0.00 | 89 | 1013.0 |
| 20260831122243 | 23 | 211 | 4.8 | 9.7 | 0.00 | 0.00 | 0.00 | 89 | 1012.8 |
| 20260831121728 | 23 | 211 | 6.4 | 11.3 | 0.00 | 0.00 | 0.00 | 89 | 1012.8 |
| 20260831121524 | 23 | 211 | 6.4 | 12.9 | 0.00 | 0.00 | 0.00 | 89 | 1010.0 |
| 20260831121242 | 23 | 211 | 9.7 | 12.9 | 0.00 | 0.00 | 0.00 | 88 | 1012.7 |
| 20260831120725 | 23 | 211 | 8.0 | 11.3 | 0.00 | 0.00 | 0.00 | 88 | 1012.5 |
| 20260831120237 | 23 | 205 | 6.4 | 11.3 | 0.00 | 0.00 | 0.00 | 88 | 1012.4 |
| 20260831120025 | 23 | 205 | 6.4 | 11.3 | 0.00 | 0.00 | 0.00 | 88 | 1009.6 |
| 20260831115748 | 23 | 205 | 8.0 | 11.3 | 0.00 | 0.00 | 0.00 | 88 | 1012.4 |
| 20260831115231 | 23 | 212 | 8.0 | 9.7 | 0.00 | 0.00 | 0.00 | 88 | 1012.2 |
| 20260831114743 | 24 | 222 | 6.4 | 9.7 | 0.00 | 0.00 | 0.00 | 88 | 1012.0 |
| 20260831114524 | 23 | 207 | 6.4 | 9.7 | 0.00 | 0.00 | 0.00 | 88 | 1009.3 |
| 20260831114230 | 24 | 207 | 6.4 | 9.7 | 0.00 | 0.00 | 0.00 | 88 | 1012.0 |
| 20260831113756 | 24 | 205 | 8.0 | 9.7 | 0.00 | 0.00 | 0.00 | 88 | 1011.9 |
| 20260831113245 | 24 | 205 | 4.8 | 9.7 | 0.00 | 0.00 | 0.00 | 88 | 1011.8 |
| 20260831113119 | 23 | 205 | 6.4 | 9.7 | 0.00 | 0.00 | 0.00 | 88 | 1009.0 |
| 20260831112728 | 24 | 215 | 6.4 | 9.7 | 0.00 | 0.00 | 0.00 | 88 | 1011.7 |
| 20260831112241 | 24 | 215 | 6.4 | 9.7 | 0.00 | 0.00 | 0.00 | 88 | 1011.5 |
| 20260831111753 | 24 | 205 | 6.4 | 8.0 | 0.00 | 0.00 | 0.00 | 88 | 1011.6 |
| 20260831111549 | 23 | 205 | 4.8 | 9.7 | 0.00 | 0.00 | 0.00 | 88 | 1008.7 |
| 20260831111247 | 24 | 205 | 4.8 | 9.7 | 0.00 | 0.00 | 0.00 | 88 | 1011.5 |
| 20260831110728 | 23 | 205 | 8.0 | 9.7 | 0.00 | 0.00 | 0.00 | 87 | 1011.6 |
| 20260831110235 | 23 | 205 | 4.8 | 6.4 | 0.00 | 0.00 | 0.00 | 87 | 1011.4 |
| 20260831110049 | 23 | 205 | 3.2 | 6.4 | 0.00 | 0.00 | 0.00 | 87 | 1008.6 |
| 20260831105746 | 24 | 205 | 3.2 | 6.4 | 0.00 | 0.00 | 0.00 | 87 | 1011.4 |
| 20260831105229 | 24 | 205 | 4.8 | 6.4 | 0.00 | 0.00 | 0.00 | 87 | 1011.6 |
| 20260831104801 | 24 | 205 | 3.2 | 4.8 | 0.00 | 0.00 | 0.00 | 86 | 1011.5 |
| 20260831104526 | 23 | 205 | 1.6 | 4.8 | 0.00 | 0.00 | 0.00 | 86 | 1008.7 |
| 20260831104225 | 24 | 205 | 3.2 | 4.8 | 0.00 | 0.00 | 0.00 | 86 | 1011.5 |
| 20260831103735 | 24 | 205 | 3.2 | 4.8 | 0.00 | 0.00 | 0.00 | 86 | 1011.4 |
| 20260831103247 | 24 | 205 | 3.2 | 4.8 | 0.00 | 0.00 | 0.00 | 86 | 1011.4 |
| 20260831103027 | 23 | 205 | 1.6 | 6.4 | 0.00 | 0.00 | 0.00 | 86 | 1008.6 |
| 20260831102722 | 24 | 205 | 1.6 | 6.4 | 0.00 | 0.00 | 0.00 | 86 | 1011.4 |
| 20260831102232 | 24 | 205 | 3.2 | 6.4 | 0.00 | 0.00 | 0.00 | 86 | 1011.4 |
| 20260831101745 | 24 | 205 | 4.8 | 8.0 | 0.00 | 0.00 | 0.00 | 86 | 1011.3 |
| 20260831101532 | 24 | 205 | 3.2 | 9.7 | 0.00 | 0.00 | 0.00 | 86 | 1008.5 |
| 20260831101231 | 24 | 205 | 4.8 | 9.7 | 0.00 | 0.00 | 0.00 | 86 | 1011.4 |
| 20260831100742 | 24 | 205 | 6.4 | 9.7 | 0.00 | 0.00 | 0.00 | 86 | 1011.3 |
| 20260831100225 | 24 | 205 | 6.4 | 8.0 | 0.00 | 0.00 | 0.00 | 85 | 1011.3 |
| 20260831100039 | 24 | 205 | 4.8 | 8.0 | 0.00 | 0.00 | 0.00 | 85 | 1008.5 |
| 20260831095737 | 24 | 205 | 4.8 | 8.0 | 0.00 | 0.00 | 0.00 | 85 | 1011.3 |
| 20260831095250 | 24 | 205 | 4.8 | 8.0 | 0.00 | 0.00 | 0.00 | 85 | 1011.2 |
| 20260831094730 | 25 | 205 | 4.8 | 6.4 | 0.00 | 0.00 | 0.00 | 85 | 1010.9 |
| 20260831094555 | 24 | 205 | 1.6 | 4.8 | 0.00 | 0.00 | 0.00 | 85 | 1008.1 |
| 20260831094243 | 25 | 205 | 3.2 | 4.8 | 0.00 | 0.00 | 0.00 | 85 | 1010.9 |
| 20260831093724 | 25 | 205 | 3.2 | 4.8 | 0.00 | 0.00 | 0.00 | 84 | 1010.8 |
| 20260831093238 | 25 | 205 | 3.2 | 4.8 | 0.00 | 0.00 | 0.00 | 84 | 1010.9 |
| 20260831093042 | 24 | 205 | 1.6 | 4.8 | 0.00 | 0.00 | 0.00 | 84 | 1008.0 |
| 20260831092748 | 25 | 205 | 1.6 | 4.8 | 0.00 | 0.00 | 0.00 | 84 | 1010.8 |
| 20260831092231 | 25 | 205 | 3.2 | 6.4 | 0.00 | 0.00 | 0.00 | 84 | 1010.7 |
| 20260831091744 | 25 | 205 | 4.8 | 8.0 | 0.00 | 0.00 | 0.00 | 84 | 1010.7 |
| 20260831091523 | 24 | 205 | 3.2 | 8.0 | 0.00 | 0.00 | 0.00 | 83 | 1007.9 |
| 20260831091228 | 25 | 205 | 3.2 | 8.0 | 0.00 | 0.00 | 0.00 | 83 | 1010.6 |
| 20260831090734 | 25 | 205 | 4.8 | 8.0 | 0.00 | 0.00 | 0.00 | 83 | 1010.6 |
| 20260831090306 | 25 | 205 | 4.8 | 12.9 | 0.00 | 0.00 | 0.00 | 83 | 1010.5 |
| 20260831090012 | 25 | 205 | 4.8 | 12.9 | 0.00 | 0.00 | 0.00 | 83 | 1007.8 |
| 20260831085730 | 25 | 205 | 8.0 | 12.9 | 0.00 | 0.00 | 0.00 | 83 | 1010.6 |
| 20260831085240 | 25 | 202 | 8.0 | 12.9 | 0.00 | 0.00 | 0.00 | 83 | 1010.6 |
| 20260831084726 | 25 | 206 | 8.0 | 11.3 | 0.00 | 0.00 | 0.00 | 83 | 1010.6 |
| 20260831084528 | 25 | 209 | 8.0 | 12.9 | 0.00 | 0.00 | 0.00 | 82 | 1007.8 |
| 20260831084239 | 25 | 203 | 9.7 | 14.5 | 0.00 | 0.00 | 0.00 | 82 | 1010.7 |
| 20260831083721 | 25 | 202 | 9.7 | 14.5 | 0.00 | 0.00 | 0.00 | 82 | 1010.5 |
| 20260831083228 | 25 | 200 | 9.7 | 14.5 | 0.00 | 0.00 | 0.00 | 82 | 1010.4 |
| 20260831083019 | 25 | 199 | 6.4 | 16.1 | 0.00 | 0.00 | 0.00 | 82 | 1007.5 |
| 20260831082759 | 25 | 180 | 9.7 | 16.1 | 0.00 | 0.00 | 0.00 | 82 | 1010.3 |
| 20260831082310 | 25 | 194 | 11.3 | 16.1 | 0.00 | 0.00 | 0.00 | 82 | 1010.2 |
| 20260831081733 | 25 | 166 | 12.9 | 16.1 | 0.00 | 0.00 | 0.00 | 83 | 1010.3 |
| 20260831081543 | 25 | 164 | 11.3 | 16.1 | 0.00 | 0.00 | 0.00 | 83 | 1007.5 |
| 20260831081245 | 25 | 186 | 12.9 | 16.1 | 0.00 | 0.00 | 0.00 | 83 | 1010.3 |
| 20260831080727 | 25 | 178 | 12.9 | 19.3 | 0.00 | 0.00 | 0.00 | 83 | 1010.2 |
| 20260831080239 | 25 | 169 | 11.3 | 20.9 | 0.00 | 0.00 | 0.00 | 83 | 1010.2 |
| 20260831080054 | 25 | 157 | 11.3 | 16.1 | 0.00 | 0.00 | 0.00 | 83 | 1007.3 |
| 20260831075748 | 25 | 193 | 12.9 | 16.1 | 0.00 | 0.00 | 0.00 | 83 | 1010.2 |
| 20260831075230 | 25 | 167 | 12.9 | 17.7 | 0.00 | 0.00 | 0.00 | 83 | 1010.3 |
| 20260831074744 | 25 | 161 | 11.3 | 14.5 | 0.00 | 0.00 | 0.00 | 83 | 1010.3 |
| 20260831074553 | 25 | 174 | 9.7 | 12.9 | 0.00 | 0.00 | 0.00 | 83 | 1007.5 |
| 20260831074231 | 25 | 155 | 11.3 | 16.1 | 0.00 | 0.00 | 0.00 | 83 | 1010.4 |
| 20260831073742 | 25 | 162 | 11.3 | 14.5 | 0.00 | 0.00 | 0.00 | 82 | 1010.5 |
| 20260831073228 | 25 | 163 | 9.7 | 12.9 | 0.00 | 0.00 | 0.00 | 82 | 1010.6 |
| 20260831073056 | 25 | 178 | 9.7 | 12.9 | 0.00 | 0.00 | 0.00 | 82 | 1007.7 |
| 20260831072742 | 25 | 174 | 9.7 | 12.9 | 0.00 | 0.00 | 0.00 | 82 | 1010.6 |
| 20260831072224 | 25 | 186 | 9.7 | 12.9 | 0.00 | 0.00 | 0.00 | 82 | 1010.6 |
| 20260831071732 | 25 | 167 | 11.3 | 14.5 | 0.00 | 0.00 | 0.00 | 82 | 1010.6 |
| 20260831071503 | 25 | 178 | 8.0 | 11.3 | 0.00 | 0.00 | 0.00 | 82 | 1007.8 |
| 20260831071245 | 25 | 177 | 8.0 | 11.3 | 0.00 | 0.00 | 0.00 | 82 | 1010.7 |
| 20260831070727 | 25 | 169 | 8.0 | 11.3 | 0.00 | 0.00 | 0.00 | 82 | 1010.8 |